Regional Weather Roundup
Issued by NWS Wakefield, VA

Home | Current Version | Previous Version | Text Only | Print | Product List | Glossary Off
Versions: 1 2 3 4 5 6 7 8 9 10 11 12 13 14 15 16 17 18 19 20 21 22 23 24 25 26 27 28 29 30 31 32 33 34 35 36 37 38 39 40 41 42 43 44 45 46 47 48 49 50

000
ASUS41 KAKQ 030214
RWRAKQ

REGIONAL WEATHER ROUNDUP
NATIONAL WEATHER SERVICE WAKEFIELD VA
1000 PM EDT SAT MAY 02 2015

Note: "fair" indicates few or no clouds below 12,000 feet with no
significant weather and/or obstructions to visibility. * = Denotes
station may not report precipitation (e.g., rain,snow,etc.),
thunder or fog.

VAZ042-051-052>054-056-030300-
NORTHERN VIRGINIA

CITY           SKY/WX    TMP DP  RH WIND       PRES   REMARKS
WASH NATIONAL  CLEAR     63  51  65 S8        30.02R
DULLES         PTCLDY    55  44  66 CALM      30.02R
FORT BELVOIR   CLEAR     53  48  82 SE2       30.02R
QUANTICO       CLEAR     59  48  67 NW5       30.03R
FREDERICKSBRG* PTCLDY    58  49  70 CALM      30.03R
STAFFORD*      CLEAR     52  45  76 CALM      30.07R
WARRENTON      PTCLDY    50  47  90 CALM      30.03R
CULPEPER*      NOT AVBL
MANASSAS*      CLEAR     54  48  82 CALM      30.03R
LEESBURG*      CLEAR     59  46  63 SW6       30.03R
WINCHESTER     PTCLDY    57  41  54 CALM      30.03R
FRONT ROYAL*   FAIR      59  43  55 S7        30.03R
LURAY*         MOCLDY    55  48  76 CALM      30.06R
$$

VAZ048-049-060>072-079>083-030300-
CENTRAL AND SOUTH CENTRAL VIRGINIA

CITY           SKY/WX    TMP DP  RH WIND       PRES   REMARKS
RICHMOND       PTCLDY    57  49  74 SE8       30.05R
CHESTERFIELD*  FAIR      55  41  58 CALM      30.07R
PETERSBURG*    CLEAR     51  50  95 CALM      30.07R
HANOVER        CLEAR     54  50  86 CALM      30.06R
TAPPAHANNOCK*  CLEAR     59  46  62 S5        30.05R
QUINTON*       FAIR      58  50  74 CALM      30.06R
CHARLOTTSVILLE CLEAR     60  43  53 VRB3      30.05R
GORDONSVILLE*  FAIR      52  47  83 CALM      30.05R
ORANGE*        PTCLDY    54  46  76 CALM      30.06R
LOUISA*        CLEAR     54  48  82 CALM      30.04R
BUMPASS*       FAIR      55  47  75 CALM      30.05R
FARMVILLE*     PTCLDY    55  48  75 CALM      30.06R
CREWE*         FAIR      53  50  88 CALM      30.06R
FORT PICKETT*  FAIR      54  53  97 CALM      30.07R
CHASE CITY*    FAIR      55  54  96 CALM      30.08R
CLARKSVILLE*   FAIR      52  50  93 CALM      30.07R
SOUTH HILL*    PTCLDY    53  52  94 CALM      30.13R
LAWRENCEVILLE* FAIR      56  53  92 CALM      30.07R
EMPORIA*       PTCLDY    52  50  93 CALM      30.09R
$$

VAZ088>098-030300-
SOUTHEAST VIRGINIA

CITY           SKY/WX    TMP DP  RH WIND       PRES   REMARKS
NORFOLK        CLEAR     53  46  77 S7        30.06R
VIRGINIA BEACH PTCLDY    53  46  77 S3        30.06R
NORFOLK NAVAL  CLEAR     60  48  64 S5        30.07R
WEST POINT*    CLEAR     61  51  69 CALM      30.07R
SALUDA*        FAIR      55  50  84 SW5       30.05R
NEWPORT NEWS   CLEAR     54  48  80 CALM      30.06R
LANGLEY AFB    CLEAR     53  50  89 W3        30.05R
FORT EUSTIS    CLEAR     57  53  85 SE2       30.04R
WILLIAMSBURG*  CLEAR     57  55  94 CALM      30.07R
HR EXEC AP*    FAIR      50  46  87 CALM      30.08R
FRANKLIN*      CLEAR     52  49  92 CALM      30.08R
WAKEFIELD      CLEAR     54  50  86 CALM      30.07R
$$

VAZ020-022-025-037-045-030300-
WEST CENTRAL AND SOUTHWEST VIRGINIA

CITY           SKY/WX    TMP DP  RH WIND       PRES   REMARKS
STAUNTON*      PTCLDY    53  45  72 CALM      30.09R
WAYNESBORO*    FAIR      55  43  63 CALM      30.08R
HOT SPRINGS VA PTCLDY    54  31  40 N6        30.13R
LYNCHBURG      PTCLDY    51  46  83 CALM      30.09R
DANVILLE       PTCLDY    53  48  83 CALM      30.09R
SOUTH BOSTON*  FAIR      53  50  88 CALM      30.08R
MARTINSVILLE   CLEAR     51  51 100 CALM      30.12R
ROANOKE        MOCLDY    62  43  49 CALM      30.11R
BLACKSBURG     CLOUDY    52  40  64 CALM      30.15R
DUBLIN*        PTCLDY    54  39  56 CALM      30.14R
MARION*        FAIR      53  38  55 CALM      30.17R
HILLSVILLE*    PTCLDY    59  35  41 CALM      30.14R
RICHLANDS*     FAIR      59  24  26 N3        30.15R
WISE*          CLEAR     59  30  33 CALM      30.16R
ABINGDON*      PTCLDY    54  42  63 CALM      30.13R
$$

MDZ021>025-VAZ099-100-030300-
SOUTHERN MARYLAND AND THE DELMARVA PENINSULA

CITY           SKY/WX    TMP DP  RH WIND       PRES   REMARKS
PATUXENT RIVER CLEAR     59  47  64 S5        30.02R
BAY BRIDGE APT   N/A    N/A N/A N/A S3        30.01R
LEONARDTOWN    CLEAR     59  45  58 CALM      30.04R
DOVER          CLEAR     51  49  91 SE7       29.99R
GEORGETOWN     CLEAR     51  44  77 S8        30.04R
EASTON         CLEAR     60  51  71 CALM      30.05
CAMBRIDGE      CLEAR     59  50  72 SE5       30.02R
SALISBURY      CLEAR     50  45  83 SE5       30.04R
OCEAN CITY     CLEAR     50  44  80 S5        30.05R
WALLOPS ISLAND CLEAR     50  45  83 S7        30.06R
ACCOMACK*      CLEAR     50  48  93 SE7       30.05R
$$

NCZ012>017-030>032-030300-
NORTH CENTRAL AND EASTERN NORTH CAROLINA

CITY           SKY/WX    TMP DP  RH WIND       PRES   REMARKS
ROANOKE RAPIDS FAIR      54  52  94 SW3       30.08R
RALEIGH        PTCLDY    55  50  83 CALM      30.10R
ELIZABETH CITY CLEAR     51  47  86 S3        30.08R
AHOSKIE*       PTCLDY    52  50  93 CALM      30.09R
EDENTON*       CLEAR     54  50  87 SE3       30.08R
CURRITUCK*     CLEAR     51  47  87 CALM      30.08R
KILL DEVIL HLS CLEAR     50  46  84 CALM      30.07R
MANTEO         CLEAR     51  46  84 CALM      30.08R
CAPE HATTERAS  CLEAR     48  45  89 NE3       30.08R
TARBORO*       FAIR      54  52  95 CALM      30.09R
GOLDSBORO      CLEAR     57  54  90 E2        30.07R
WASHINGTON       N/A     57  51  79 SE3       30.10R
GREENVILLE     PTCLDY    55  54  94 CALM      30.10R
NEW BERN       PTCLDY    60  51  72 SE6       30.10R
WILMINGTON     CLEAR     59  55  87 CALM      30.09R
$$

VAZ048-030300-
ELSEWHERE

CITY           SKY/WX    TMP DP  RH WIND       PRES   REMARKS
HARRISBURG PA  MOCLDY    66  43  43 SW13      29.97R
BALTIMORE      CLEAR     62  46  55 S6        30.00R
ANNAPOLIS      CLEAR     59  49  69 CALM      30.00R
ANDREWS AFB    CLEAR     58  47  67 S8        30.01R
PHILADELPHIA   PTCLDY    60  46  59 S8        30.02R
HENDERSON NC   CLEAR     54  51  90 S3        30.09R
GREENSBORO     PTCLDY    59  44  57 CALM      30.09R
ROCKY MOUNT    CLEAR     54  53  97 CALM      30.09R
$$

VAZ100-030300-
MARINE

STATION/POSITION TIME  TEMP    WIND        PRES    WAVE   SWELL
                       AIR SEA DIR/SP/G            HT/PER HT/PER
                 (UTC) (F)     (DEG/KT/KT) (MB)    (FT/S) (FT/S)
BRANDYWINE LGT   0100   51 53  170/ 17/ 19 1016.7R
CAPE MAY NJ      0100   50 60  170/  6/  8 1016.5R
LEWES DE         0100   52 56  170/  9/ 12 1016.5R
15NM E FENWICK I 0150   49 49              1017.4R   5/ 8
OCEAN-CITY-INLET 0100   52 55  190/  5/  7 1016.9R
WACHAPREAGUE VA  0100   53 59  180/  8/  9 1017.5R
THOMAS POINT MD  0200   63 58  210/  9/  9 1016.9R
GOOSES REEF MD   0200   62 59                N/A     0
COVE POINT MD    0100   64     220/  6/  6 1016.7R
SOLOMONS ISLAND  0100      61                N/A
BISHOPS HEAD MD  0100   60 63  200/  9/  9 1015.7R
PINEY POINT MD   0106          210/  5/  5   N/A
CAMBRIDGE MD     0100   63 60  240/  3/  5 1015.6R
LEWISETTA VA     0100   63 61              1016.3R
RAPPAHANNOCK LGT 0100          150/ 10/ 10 1017.5R
YORK RVR RNG VA  0100   58     190/  7/  8 1016.6R
YORKTOWN VA      0100   58 59  190/  2/  4 1016.9R
JAMESTOWN VA     0200   59 62  160/  4/  4 1016.9R
DOMINION TERM VA 0100   60      CALM  /  1 1017.3R
KIPTOPEKE VA     0100      62  150/  6/  7   N/A
CHES BAY BRIDGE  0100   57 57  150/  8/  9 1016.9R
CAPE HENRY VA    0100   53     150/  6/  8 1016.1R
CHESAPEAKE LGHT  0100   51     170/  7/  7 1018.2R
WILLOUBY STN VA  0100   61     160/  4/  5 1017.8R
S CRANEY ISL VA  0100          160/  3/  3 1017.2R
CAPE HENRY BUOY  0128      52                N/A     5/11   3/11
1ST LANDING BUOY 0200      58              1017.9R
CAPE CHARLES BUO 0126      53                N/A     5/11   5/11
OFFSHORE WE BUOY 0111      50                N/A     6/11   7/11
64NM E OF VA BCH 0150   57 63  350/  6/ 10 1017.5R   9/11  10/11
DUCK PIER NC     0100   53 54   80/  7/  8 1016.8R
44056 DUCK FRF   0111      55                N/A     6/12   3/12
OREGON INLET NC  0100   52 57   40/  7/  9 1017.8R
HATTERAS NC      0100   57 61   40/  5/  7 1017.7R
DIAMOND SHLS NC  0150   56 70   30/ 14/ 16 1018.4R   7/12   7/12
CAPE LOOKOUT NC  0200   61      60/  9/ 10 1018.8R
$$


USA.gov is the U.S. government's official web portal to all federal, state and local government web resources and services.